Tracking 19817 objects as of 17-Aug-2019
HD Live streaming from Space Station
objects crossing your sky now

FENGYUN 1C DEB

Track FENGYUN 1C DEB now!
10-day predictions


NORAD ID: 36670
Int'l Code: 1999-025DYQ
Perigee: 773.8 km
Apogee: 835.6 km
Inclination: 98.8 °
Period: 100.8 minutes
Semi major axis: 7175 km
RCS: 0.014 m2 (small)
Launch date: May 10, 1999
Source: People's Republic of China (PRC)
Launch site: Taiyaun Space Center, China (TSC)

Note: This is SATELLITE DEBRIS
aabbcc
Your satellite tracking list
Your tracking list is empty




NASA's NSSDC Master Catalog

Two Line Element Set (TLE):
1 36670U 99025DYQ 19228.97280719  .00000513  00000-0  22178-3 0  9994
2 36670  98.8019 284.3459 0043066   6.2693 353.9018 14.28266556553332
Source of the keplerian elements: AFSPC